Regional Weather Roundup
Issued by NWS

Home | Current Version | Previous Version | Text Only | Print | Product List | Glossary On
Versions: 1 2 3 4 5 6 7 8 9 10 11 12 13 14 15 16 17 18 19 20 21 22 23 24 25 26 27 28 29 30 31 32 33 34 35 36 37 38 39 40 41 42 43 44 45 46 47 48 49 50
000
ASUS43 KMKX 202300
RWRWI

WISCONSIN REGIONAL WEATHER ROUNDUP
NATIONAL WEATHER SERVICE MILWAUKEE/SULLIVAN WI
600 PM CDT MON OCT 20 2014

NOTE: "FAIR" INDICATES FEW OR NO CLOUDS BELOW 12,000 FEET WITH NO
SIGNIFICANT WEATHER AND/OR OBSTRUCTIONS TO VISIBILITY.

WIZ001-002-006>008-014>016-023>028-210000-
NORTHWEST WISCONSIN

CITY           SKY/WX    TMP DP  RH WIND       PRES   REMARKS
SUPERIOR ARPT  CLOUDY    49  40  69 NE7       30.05R
ASHLAND        CLOUDY    50  39  66 N7        30.04R
HAYWARD        CLOUDY    50  39  66 VRB3      30.03R
SIREN          CLOUDY    52  39  61 N7        30.04R
CUMBERLAND     CLOUDY    50  37  62 N8        30.02R
RICE LAKE      CLOUDY    51  40  65 N8        30.03R
CHETEK         CLOUDY    52  39  62 N10       30.02R
LADYSMITH      CLOUDY    52  40  64 NW7       30.01R
EAU CLAIRE     PTCLDY    53  38  56 N5        30.01R
MENOMONIE      MOCLDY    57  39  52 N9        30.00R
NEW RICHMOND   CLEAR     56  40  53 NW6       30.01R
OSCEOLA        CLEAR     56  41  55 N9        30.04R
$$

WIZ003>005-009-010-017-018-210000-
NORTH CENTRAL WISCONSIN

CITY           SKY/WX    TMP DP  RH WIND       PRES   REMARKS
MANITOWISH WTR CLOUDY    44  43  98 N5        29.99R
ARBOR VITAE    CLOUDY    46  42  87 N7        29.98R
WOODRUFF       CLOUDY    46  42  87 N7        29.98R
RHINELANDER    CLOUDY    44  42  93 N3        29.99R
EAGLE RIVER    CLOUDY    44  41  90 NW5       29.97R
LAND O LAKES   CLOUDY    44  40  88 N9        29.99R
PHILLIPS       CLOUDY    48  40  72 N3        29.99R
TOMAHAWK       CLOUDY    47  39  76 NW3       29.99R
MEDFORD        CLOUDY    48  39  71 N6        29.98R
MERRILL        CLOUDY    48  41  74 N5        29.98R
$$

WIZ029-030-035-036-043>047-210000-
CENTRAL WISCONSIN

CITY           SKY/WX    TMP DP  RH WIND       PRES   REMARKS
WAUSAU         CLOUDY    50  39  66 N8        29.97R
MOSINEE        NOT AVBL
MARSHFIELD     CLOUDY    51  39  63 N6        29.99R
STEVENS POINT  CLOUDY    49  39  69 N8        29.98R
WAUPACA        CLOUDY    54  44  70 NW3       29.96R
WAUTOMA        NOT AVBL
WISC RAPIDS    CLOUDY    52  40  63 N8        30.00R
CAMP DOUGLAS   NOT AVBL
$$

WIZ011>013-019>022-031-037>040-048>050-210000-
NORTHEAST WISCONSIN

CITY           SKY/WX    TMP DP  RH WIND       PRES   REMARKS
ANTIGO         CLOUDY    46  40  82 N12G17    29.97R
SHAWANO        CLOUDY    53  44  72 NW5       29.95R
OCONTO         CLOUDY    50  43  75 N10       29.94R
STURGEON BAY   CLOUDY    48  43  81 N15       29.95R
GREEN BAY      CLOUDY    50  44  80 NW3       29.95R
MANITOWOC      NOT AVBL
APPLETON       CLOUDY    52  43  71 NW6       29.96R
CLINTONVILLE   CLOUDY    52  43  71 NW7       29.95R
OSHKOSH        CLOUDY    52  42  69 NW8       29.96R
$$

WIZ032>034-041-042-053>061-210000-
SOUTHWEST WISCONSIN

CITY           SKY/WX    TMP DP  RH WIND       PRES   REMARKS
LA CROSSE      CLEAR     60  41  49 N7        29.97R
SPARTA         PTCLDY    57  37  47 N8        29.99R
VIROQUA        CLEAR     57  41  55 N10       29.97R
BOSCOBEL       PTCLDY    61  41  47 N8        29.96R
PRAIRIE DU CHI CLEAR     63  38  40 NW9       29.95R
PLATTEVILLE    PTCLDY    61  42  50 N8        29.96R
$$

WIZ056-057-062-063-064-067-068-210000-
SOUTH CENTRAL WISCONSIN

CITY           SKY/WX    TMP DP  RH WIND       PRES   REMARKS
REEDSBURG      CLOUDY    55  41  58 N7        29.97R
BARABOO/DELLS  CLOUDY    55  37  50 N8        29.97R
LONE ROCK      NOT AVBL
MINERAL POINT  CLOUDY    61  37  41 N6        29.95R
MADISON        CLOUDY    54  42  64 N8        29.97R
MIDDLETON      CLOUDY    56  40  55 NE6       29.97R
WATERTOWN      CLOUDY    52  41  67 NW7       29.95R
MONROE         CLEAR     54  43  66 N8        29.94R
JANESVILLE     CLOUDY    57  39  51 N8        29.95R
$$

WIZ051-052-058>065-066-070>072-210000-
SOUTHEAST WISCONSIN

CITY           SKY/WX    TMP DP  RH WIND       PRES   REMARKS
MILWAUKEE      MOCLDY    54  41  61 NW7       29.94R
WAUKESHA       CLOUDY    50  41  71 NW12      29.96R
MILWAUKEE/TIMM NOT AVBL
RACINE         CLOUDY    53  42  66 NW6       29.95R
BURLINGTON     CLOUDY    52  41  65 N12       29.95R
KENOSHA        CLOUDY    53  43  68 N8        29.95R
FOND DU LAC    CLOUDY    52  42  69 NW8       29.96R
SHEBOYGAN      CLOUDY    52  41  66 NW7       29.94R
WEST BEND      CLOUDY    52  41  66 NW8       29.94R
JUNEAU         CLOUDY    51  41  69 N9        29.96R
$$

LSZ147-162-210000-
LAKE SUPERIOR

STATION/POSITION TIME  TEMP    WIND        PRES    WAVE
                       AIR SEA DIR/SP/G            HT/PER
                 (UTC) (F)     (DEG/KT/KT) (MB)    (FT/S)
W MID LAKE BUOY  2150   46 47   50/  6/  6 1016.3R   1
DEVILS ISLAND    2200   50     340/  8/  9 1016.9R
PORT WING        2240   50     340/  9/ 12 1017.3R
SAXON HARBOR     2200   50      10/  8/ 11 1016.3R
$$

LMZ867-665-643>646-210000-
LAKE MICHIGAN

STATION/POSITION TIME  TEMP    WIND        PRES    WAVE
                       AIR SEA DIR/SP/G            HT/PER
                 (UTC) (F)     (DEG/KT/KT) (MB)    (FT/S)
CHAMBERS ISLAND  2200   50     330/ 15/ 18 1013.2R
N MID LAKE BUOY  2150   48 51  330/ 21/ 25 1012.0R   4/ 4
NORTHPORT PIER   2200   49     340/ 19/ 23 1012.9R
SISTER BAY       2213          360/ 20/ 25   N/A
KEWAUNEE LAKESHO 2200   51     330/  7/ 10 1012.3R
SHEBOYGAN LAKESH 2200   53 50  350/  9/ 10 1013.5R
PORT WASHINGTON  2240   54     320/  7/ 10 1014.2R
ATWATER BUOY     2200   54     320/ 12/ 14 1014.1R
MILWAUKEE LAKESH 2200   54     320/  7/ 10   N/A
S MID LAKE BUOY  2150   53 55  340/ 17/ 19 1012.3R   3/ 5
KENOSHA   LAKESH 2200   54     360/  7/  9 1013.2R
$$

TC  - TEMPERATURE IN CELSIUS
VSB - VISIBILITY IN STATUTE MILES
WCI - WIND CHILL INDEX
HX  - HEAT INDEX




USA.gov is the U.S. government's official web portal to all federal, state and local government web resources and services.